Sacramento, CA

12:27 AM PDT on July 22, 2017 (GMT -0700)
Sacramento Executive

Weather History for KSAC - May, 2013

Change the Weather History Date:

Sunday, May 5, 2013

  Actual Average Record
Temperature  
Mean Temperature 65 °F -  
Max Temperature 75 °F 77 °F 96 °F (1990)
Min Temperature 55 °F 49 °F 38 °F (1965)
Degree Days  
Heating Degree Days 0    
Cooling Degree Days 0    
Growing Degree Days 14 (Base 50)    
Moisture  
Dew Point 45 °F    
Average Humidity 54    
Maximum Humidity 72    
Minimum Humidity 35    
Precipitation  
Precipitation 0.00 in 0.03 in 0.41 in (1995)
Month to date precipitation 0.00 0.14  
Year to date precipitation 3.39 11.15  
Since 1 July precipitation 14.68  
Sea Level Pressure  
Sea Level Pressure 29.68 in    
Wind  
Wind Speed 10 mph (SW)    
Max Wind Speed 18 mph    
Max Gust Speed 26 mph    
Visibility 10 miles    
Events      
T = Trace of Precipitation, MM = Missing Value Source: NWS Daily Summary

Daily Weather History Graph

Daily Weather History Graph

Search for Another Location

Airport or City:

Trip Planner

Search our weather history database for the weather conditions in past years. The results will help you decide how hot, cold, wet, or windy it might be!

Date:

Astronomy

May. 05, 2013 Rise Set
Actual Time 6:03 AM PDT 8:01 PM PDT
Civil Twilight 5:34 AM PDT 8:30 PM PDT
Nautical Twilight 4:59 AM PDT 9:06 PM PDT
Astronomical Twilight 4:21 AM PDT 9:44 PM PDT
Moon 3:34 AM PDT (5/5) 4:09 PM PDT (5/5)
Length of Visible Light 14h 55m
Length of Day
13h 58m
Waning Crescent, 17% of the Moon is Illuminated
May 5
Waning Crescent
May 9
New
May 17
First Quarter
May 24
Full
May 31
Last Quarter

Hourly Weather History & Observations

Time (PDT) Temp. Dew Point Humidity Pressure Visibility Wind Dir Wind Speed Gust Speed Precip Events Conditions
12:53 AM 59.0 °F 46.0 °F 62% 29.56 in 10.0 mi SSW 6.9 mph - N/A   Clear
1:53 AM 59.0 °F 45.0 °F 60% 29.56 in 10.0 mi SW 12.7 mph 24.2 mph N/A   Clear
2:53 AM 57.9 °F 46.0 °F 65% 29.55 in 10.0 mi WSW 15.0 mph 23.0 mph N/A   Clear
3:53 AM 57.0 °F 46.0 °F 67% 29.57 in 10.0 mi SW 16.1 mph 25.3 mph N/A   Clear
4:53 AM 55.9 °F 45.0 °F 67% 29.60 in 10.0 mi SW 11.5 mph 18.4 mph N/A   Clear
5:53 AM 55.9 °F 46.0 °F 69% 29.63 in 10.0 mi SW 10.4 mph 20.7 mph N/A   Clear
6:53 AM 55.9 °F 46.0 °F 69% 29.65 in 10.0 mi SW 13.8 mph - N/A   Clear
7:53 AM 60.1 °F 45.0 °F 57% 29.68 in 10.0 mi SW 10.4 mph 19.6 mph N/A   Clear
8:53 AM 61.0 °F 45.0 °F 56% 29.70 in 10.0 mi WSW 15.0 mph 20.7 mph N/A   Clear
9:53 AM 63.0 °F 46.0 °F 54% 29.71 in 10.0 mi SW 10.4 mph - N/A   Clear
10:53 AM 66.2 °F 44.6 °F 46% 29.72 in 10.0 mi WSW 13.8 mph - N/A   Clear
11:53 AM 68.0 °F 45.0 °F 43% 29.73 in 10.0 mi SW 8.1 mph - N/A   Partly Cloudy
12:53 PM 68.0 °F 44.1 °F 42% 29.72 in 10.0 mi SSW 6.9 mph - N/A   Clear
1:53 PM 70.0 °F 44.1 °F 39% 29.71 in 10.0 mi WSW 9.2 mph - N/A   Clear
2:53 PM 72.0 °F 44.1 °F 37% 29.70 in 10.0 mi Variable 6.9 mph - N/A   Clear
3:53 PM 73.0 °F 44.1 °F 35% 29.70 in 10.0 mi West 5.8 mph - N/A   Clear
4:53 PM 73.9 °F 44.1 °F 34% 29.69 in 10.0 mi Variable 3.5 mph - N/A   Scattered Clouds
5:53 PM 73.0 °F 45.0 °F 37% 29.70 in 10.0 mi SW 5.8 mph - N/A   Mostly Cloudy
6:53 PM 73.0 °F 45.0 °F 37% 29.70 in 10.0 mi WNW 6.9 mph - N/A   Mostly Cloudy
7:53 PM 66.9 °F 46.9 °F 49% 29.74 in 10.0 mi SW 10.4 mph - N/A   Clear
8:53 PM 64.9 °F 46.9 °F 52% 29.75 in 10.0 mi SW 8.1 mph - N/A   Mostly Cloudy
9:53 PM 64.0 °F 46.9 °F 54% 29.78 in 10.0 mi SW 4.6 mph - N/A   Scattered Clouds
10:53 PM 62.1 °F 46.9 °F 58% 29.79 in 10.0 mi SW 4.6 mph - N/A   Partly Cloudy
11:53 PM 62.1 °F 48.0 °F 60% 29.80 in 10.0 mi SSW 4.6 mph - N/A   Overcast